[[{"header":{"parameterUnit":"m.s-1","parameterCategory":1,"la1":30.2991,"la2":30.254,"lo1":-89.0895,"lo2":-89.0444,"dy":0.0017,"dx":0.0017,"nx":28,"ny":28,"refTime":"2024-04-22T09:00:00:Z","depth":0,"parameterNumber":2,"parameterNumberName":"U-component_of_WINDS"},"data":[0,0,0,0,0,0,0,0,0,0,0,0,0,0,0,0,0,0,0,0,0,0,0,0,0,0,0,0,0,0,0,0,0,0,0,0,0,0,0,0,0,0,0,0,0,0,0,0,0,0,0,0,0,0,0,0,0,0,-1.7408,-1.7407,0,-1.7373,-1.7372,-1.7372,-1.7319,-1.7318,-1.7318,-1.7317,-1.7282,-1.7282,-1.7282,0,0,0,0,0,0,0,0,0,0,0,0,0,-1.743,-1.743,-1.7408,-1.7407,-1.7407,-1.7373,-1.7372,-1.7372,-1.732,-1.7318,-1.7317,-1.7316,-1.7282,-1.7282,-1.7282,0,0,0,0,0,0,0,0,0,0,0,0,0,-1.741,-1.743,-1.7408,-1.7377,-1.7373,-1.7373,-1.7372,-1.7372,-1.732,-1.7318,-1.7317,-1.7316,-1.7282,-1.7282,-1.7282,-1.7309,0,0,-1.7281,-1.7281,0,0,0,0,0,0,0,0,-1.7411,-1.7409,-1.7382,-1.7379,-1.7375,-1.7349,-1.7367,-1.7351,-1.732,-1.734,-1.7317,-1.7315,-1.7305,-1.7303,-1.73,-1.7307,-1.7306,-1.7281,-1.7281,-1.7281,-1.7281,0,0,0,0,0,0,0,-1.7413,-1.7411,-1.7394,-1.7381,-1.7377,-1.7365,-1.736,-1.7364,-1.7331,-1.7338,-1.7334,-1.7331,-1.7303,-1.73,-1.7299,-1.7305,-1.7281,-1.7281,-1.7281,-1.7281,-1.7333,-1.7334,0,0,0,0,0,0,-1.7419,-1.7412,-1.7395,-1.7393,-1.739,-1.7365,-1.736,-1.7359,-1.7331,-1.7325,-1.7332,-1.7329,-1.7301,-1.7299,-1.7297,-1.7327,-1.7281,-1.7281,-1.7281,-1.7332,-1.7333,-1.7335,0,0,0,0,0,0,-1.7419,-1.7418,-1.7396,-1.7401,-1.7398,-1.7366,-1.7365,-1.7359,-1.7355,-1.7326,-1.732,-1.7335,-1.73,-1.7297,-1.7306,-1.7325,-1.7281,-1.7281,-1.733,-1.7332,-1.7334,-1.7387,0,0,0,0,0,0,-1.742,-1.7418,-1.7428,-1.7402,-1.7398,-1.7406,-1.7366,-1.7359,-1.7355,-1.735,-1.7327,-1.7322,-1.7298,-1.7307,-1.7306,-1.7324,-1.7281,-1.7328,-1.7331,-1.7333,-1.7384,-1.7391,-1.7397,0,0,0,0,0,-1.7421,-1.7445,-1.7429,-1.7427,-1.7409,-1.7407,-1.7405,-1.7377,-1.7357,-1.7367,-1.7348,-1.7323,-1.7323,-1.7308,-1.7307,-1.7325,-1.7327,-1.733,-1.7333,-1.7381,-1.739,-1.7397,0,0,0,0,0,0,-1.7475,-1.7441,-1.7423,-1.7439,-1.7426,-1.7398,-1.741,-1.7387,-1.7381,-1.7376,-1.7342,-1.7338,-1.7351,-1.7339,-1.7323,-1.735,-1.7321,-1.7324,-1.7357,-1.7366,-1.7372,-1.7375,-1.7281,0,0,0,0,0,-1.7488,-1.7489,-1.7459,-1.7476,-1.7471,-1.7442,-1.744,-1.7419,-1.7405,-1.74,-1.7382,-1.7369,-1.7366,-1.7365,-1.7361,-1.7382,-1.7376,-1.7394,-1.74,-1.7406,-1.7409,-1.7419,-1.7427,-1.7345,-1.7345,-1.7345,0,0,-1.7516,-1.7498,-1.7501,-1.7487,-1.7475,-1.7476,-1.7438,-1.7441,-1.7442,-1.74,-1.7408,-1.7394,-1.7378,-1.7393,-1.7398,-1.7383,-1.743,-1.741,-1.7415,-1.7415,-1.7423,-1.7431,-1.7438,-1.7348,-1.7347,-1.7347,0,0,-1.7569,-1.7555,-1.7567,-1.7556,-1.7538,-1.7518,-1.7521,-1.7497,-1.7486,-1.7492,-1.7461,-1.7462,-1.7457,-1.7447,-1.7441,-1.7489,-1.7466,-1.7489,-1.7524,-1.7534,-1.7541,-1.7546,-1.7563,-1.757,-1.7492,-1.7492,-1.7492,0,-1.7606,-1.7607,-1.7577,-1.7582,-1.7577,-1.7538,-1.7551,-1.7541,-1.7523,-1.752,-1.7503,-1.7497,-1.7483,-1.7495,-1.7507,-1.7503,-1.7506,-1.7492,-1.7542,-1.7547,-1.7552,-1.7568,-1.7575,-1.7495,-1.7495,-1.7494,-1.7494,0,-1.7654,-1.7656,-1.7668,-1.7651,-1.7647,-1.7656,-1.7627,-1.7626,-1.7606,-1.7588,-1.7596,-1.7578,-1.7569,-1.757,-1.7551,-1.7579,-1.757,-1.7548,-1.7519,-1.7563,-1.7578,-1.7584,-1.7499,-1.7498,-1.7497,-1.7497,0,0,-1.774,-1.7705,-1.7711,-1.7702,-1.7679,-1.768,-1.7687,-1.7678,-1.7679,-1.7667,-1.7672,-1.767,-1.7649,-1.7642,-1.7621,-1.763,-1.7669,-1.7606,-1.7606,-1.7619,-1.7699,-1.7716,-1.7724,-1.7653,-1.7654,-1.7655,-1.7701,0,-1.7788,-1.7798,-1.7771,-1.7788,-1.7789,-1.7752,-1.7758,-1.7745,-1.7728,-1.7726,-1.7708,-1.7706,-1.7679,-1.7675,-1.7682,-1.7663,-1.7685,-1.7659,-1.7658,-1.7658,-1.7664,-1.7732,-1.775,-1.7794,-1.7706,-1.7707,-1.7708,0,-1.7846,-1.7837,-1.7854,-1.783,-1.7829,-1.7835,-1.7825,-1.7824,-1.7808,-1.7795,-1.7788,-1.7763,-1.7768,-1.7739,-1.7746,-1.7729,-1.7727,-1.7717,-1.7718,-1.7718,-1.7686,-1.7733,-1.7808,-1.7815,-1.7716,-1.7716,-1.7715,0,-1.7907,-1.79,-1.7909,-1.7903,-1.7874,-1.788,-1.7868,-1.7851,-1.7847,-1.7838,-1.7835,-1.7827,-1.7823,-1.7817,-1.779,-1.7772,-1.7801,-1.7769,-1.779,-1.7791,-1.7799,-1.7799,-1.7874,-1.7797,-1.7796,-1.7796,-1.7796,0,-1.7964,-1.7976,-1.7936,-1.7942,-1.7954,-1.7922,-1.7935,-1.792,-1.7904,-1.7907,-1.7874,-1.7877,-1.7842,-1.7841,-1.782,-1.7829,-1.7827,-1.7817,-1.7811,-1.782,-1.7822,-1.7819,-1.7815,-1.7798,-1.7798,-1.7797,-1.7797,0,-1.8035,-1.8008,-1.8016,-1.7988,-1.7982,-1.7992,-1.7968,-1.7973,-1.7953,-1.7957,-1.7956,-1.7926,-1.7923,-1.7896,-1.7887,-1.7873,-1.789,-1.7878,-1.7895,-1.7892,-1.7914,-1.7913,-1.7991,-1.8,-1.7916,-1.7917,-1.7918,0,-1.8073,-1.8082,-1.8055,-1.8054,-1.8044,-1.8042,-1.8038,-1.8007,-1.8004,-1.7986,-1.7993,-1.7987,-1.7981,-1.7977,-1.7955,-1.7948,-1.7936,-1.7964,-1.7935,-1.7943,-1.7937,-1.7937,-1.7938,-1.7971,-1.7972,-1.7973,-1.7973,0,-1.8144,-1.813,-1.8126,-1.8116,-1.8112,-1.8104,-1.8093,-1.8094,-1.8059,-1.8058,-1.8054,-1.8049,-1.804,-1.8034,-1.8023,-1.8011,-1.7987,-1.7982,-1.7987,-1.7996,-1.8006,-1.8001,-1.7913,-1.7981,-1.798,-1.798,-1.7979,-1.7979,-1.82,-1.8206,-1.8187,-1.8183,-1.8172,-1.8162,-1.8165,-1.8146,-1.8142,-1.8132,-1.8113,-1.8112,-1.8096,-1.8078,-1.8068,-1.8067,-1.8053,-1.8059,-1.8061,-1.8063,-1.8068,-1.8006,-1.8065,-1.8065,-1.8064,-1.8064,-1.8064,0,-1.8269,-1.8256,-1.8252,-1.8238,-1.8235,-1.8211,-1.8198,-1.8197,-1.8196,-1.8182,-1.8177,-1.8172,-1.8167,-1.8144,-1.8136,-1.814,-1.8128,-1.8139,-1.8138,-1.8136,-1.8081,-1.8078,-1.8148,-1.8148,-1.8148,-1.8148,-1.8148,-1.8148,-1.8305,-1.8314,-1.8298,-1.83,-1.8286,-1.8285,-1.8279,-1.827,-1.8259,-1.8256,-1.8251,-1.8236,-1.8218,-1.8209,-1.8203,-1.8196,-1.8195,-1.8209,-1.8199,-1.8148,-1.814,-1.8132,-1.8129,-1.8209,-1.8209,-1.8254,-1.8254,-1.8255]},{"header":{"parameterUnit":"m.s-1","parameterCategory":1,"la1":30.2991,"la2":30.254,"lo1":-89.0895,"lo2":-89.0444,"dy":0.0017,"dx":0.0017,"nx":28,"ny":28,"refTime":"2024-04-22T09:00:00:Z","depth":0,"parameterNumber":3,"parameterNumberName":"V-component_of_WINDS"},"data":[0,0,0,0,0,0,0,0,0,0,0,0,0,0,0,0,0,0,0,0,0,0,0,0,0,0,0,0,0,0,0,0,0,0,0,0,0,0,0,0,0,0,0,0,0,0,0,0,0,0,0,0,0,0,0,0,0,0,-4.2619,-4.2619,0,-4.266,-4.266,-4.2661,-4.2646,-4.2645,-4.2644,-4.2643,-4.2682,-4.2684,-4.2686,0,0,0,0,0,0,0,0,0,0,0,0,0,-4.2526,-4.2527,-4.2619,-4.2619,-4.262,-4.266,-4.266,-4.2661,-4.2646,-4.2645,-4.2644,-4.2643,-4.2681,-4.2684,-4.2686,0,0,0,0,0,0,0,0,0,0,0,0,0,-4.2566,-4.2528,-4.2619,-4.2617,-4.2618,-4.266,-4.266,-4.2661,-4.2646,-4.2645,-4.2644,-4.2643,-4.2681,-4.2683,-4.2686,-4.2731,0,0,-4.2695,-4.2696,0,0,0,0,0,0,0,0,-4.2564,-4.257,-4.2617,-4.2618,-4.2618,-4.2646,-4.2641,-4.2684,-4.2647,-4.2635,-4.2643,-4.2642,-4.2671,-4.2675,-4.2685,-4.2732,-4.2734,-4.2695,-4.2697,-4.2698,-4.2699,0,0,0,0,0,0,0,-4.2561,-4.2568,-4.2635,-4.2618,-4.2618,-4.2614,-4.2618,-4.2649,-4.266,-4.2636,-4.2635,-4.2641,-4.2671,-4.2682,-4.2686,-4.2735,-4.2695,-4.2697,-4.2699,-4.27,-4.2822,-4.2823,0,0,0,0,0,0,-4.2558,-4.2565,-4.2633,-4.2636,-4.2587,-4.2617,-4.2622,-4.2639,-4.266,-4.2662,-4.2642,-4.264,-4.2678,-4.2683,-4.2687,-4.2742,-4.2698,-4.2701,-4.2702,-4.282,-4.2822,-4.2824,0,0,0,0,0,0,-4.2557,-4.2565,-4.2632,-4.2601,-4.2609,-4.262,-4.2639,-4.264,-4.2652,-4.2664,-4.2666,-4.2652,-4.2677,-4.2683,-4.2721,-4.2743,-4.2702,-4.2704,-4.2818,-4.2821,-4.2823,-4.2851,0,0,0,0,0,0,-4.2554,-4.2564,-4.2582,-4.2601,-4.2611,-4.2665,-4.264,-4.2642,-4.2657,-4.2655,-4.2674,-4.2676,-4.2677,-4.2716,-4.2723,-4.2746,-4.2707,-4.2816,-4.2819,-4.2822,-4.2848,-4.2854,-4.2859,0,0,0,0,0,-4.2551,-4.2587,-4.2583,-4.2591,-4.2633,-4.2667,-4.2672,-4.2674,-4.2659,-4.2676,-4.2684,-4.2675,-4.2739,-4.272,-4.2728,-4.2752,-4.2815,-4.2819,-4.2822,-4.2846,-4.2853,-4.2859,0,0,0,0,0,0,-4.2568,-4.2589,-4.2585,-4.2628,-4.2646,-4.2664,-4.2686,-4.2681,-4.2702,-4.2699,-4.2699,-4.2704,-4.2742,-4.275,-4.2729,-4.2797,-4.2775,-4.278,-4.279,-4.2797,-4.2803,-4.28,-4.2709,0,0,0,0,0,-4.2577,-4.2604,-4.262,-4.2657,-4.2666,-4.2675,-4.269,-4.269,-4.2707,-4.2714,-4.2725,-4.2742,-4.2766,-4.2782,-4.2804,-4.2849,-4.2853,-4.2869,-4.2875,-4.2879,-4.2884,-4.291,-4.2917,-4.2835,-4.2835,-4.2835,0,0,-4.2596,-4.2611,-4.2627,-4.2661,-4.2675,-4.2702,-4.2681,-4.271,-4.273,-4.2718,-4.2755,-4.2763,-4.2782,-4.2824,-4.2842,-4.2832,-4.2908,-4.2884,-4.2887,-4.2889,-4.2914,-4.2922,-4.2929,-4.2838,-4.2837,-4.2837,0,0,-4.2644,-4.2658,-4.2691,-4.2705,-4.2727,-4.2733,-4.2741,-4.276,-4.2766,-4.2803,-4.2795,-4.2818,-4.2859,-4.2873,-4.2886,-4.2941,-4.2934,-4.2948,-4.2977,-4.3002,-4.3008,-4.3014,-4.3035,-4.3043,-4.2953,-4.2953,-4.2953,0,-4.2664,-4.2706,-4.2708,-4.2739,-4.2754,-4.2746,-4.278,-4.2793,-4.282,-4.2831,-4.2819,-4.2872,-4.2883,-4.2929,-4.2943,-4.2953,-4.2962,-4.2946,-4.3007,-4.3013,-4.3019,-4.3039,-4.3046,-4.2954,-4.2954,-4.2954,-4.2954,0,-4.273,-4.2759,-4.2783,-4.2812,-4.283,-4.2862,-4.2869,-4.2886,-4.2885,-4.2892,-4.293,-4.2944,-4.297,-4.2981,-4.2979,-4.3026,-4.3019,-4.3007,-4.2985,-4.3028,-4.3047,-4.3055,-4.2957,-4.2956,-4.2956,-4.2955,0,0,-4.2791,-4.2822,-4.283,-4.2844,-4.2868,-4.289,-4.2921,-4.2948,-4.2964,-4.2983,-4.301,-4.3046,-4.3035,-4.305,-4.3049,-4.3071,-4.3116,-4.3056,-4.3057,-4.3068,-4.317,-4.318,-4.3189,-4.311,-4.3112,-4.3113,-4.3169,0,-4.2842,-4.2899,-4.2903,-4.2954,-4.2982,-4.2975,-4.3002,-4.3019,-4.3027,-4.305,-4.3057,-4.3084,-4.3067,-4.3076,-4.3097,-4.3106,-4.3136,-4.3101,-4.3136,-4.3137,-4.3133,-4.3199,-4.3209,-4.3262,-4.3177,-4.3178,-4.3179,0,-4.291,-4.2933,-4.2988,-4.301,-4.3021,-4.3046,-4.3072,-4.3095,-4.3114,-4.3118,-4.3135,-4.3132,-4.3164,-4.314,-4.3185,-4.3161,-4.3175,-4.3181,-4.3183,-4.3187,-4.3161,-4.3206,-4.3278,-4.3287,-4.319,-4.3189,-4.3188,0,-4.295,-4.2995,-4.3035,-4.3046,-4.3072,-4.309,-4.3101,-4.3119,-4.3136,-4.3158,-4.3169,-4.3193,-4.3207,-4.3226,-4.323,-4.3212,-4.3275,-4.3251,-4.3279,-4.3279,-4.3294,-4.3293,-4.3371,-4.33,-4.33,-4.33,-4.33,0,-4.3008,-4.3042,-4.3054,-4.3078,-4.3116,-4.3119,-4.3156,-4.3166,-4.3183,-4.3208,-4.3203,-4.3227,-4.3229,-4.3254,-4.3256,-4.3294,-4.3299,-4.3304,-4.3304,-4.3305,-4.3305,-4.3315,-4.3312,-4.3302,-4.3302,-4.3301,-4.3301,0,-4.306,-4.3069,-4.3112,-4.3133,-4.3139,-4.3166,-4.3184,-4.3207,-4.3214,-4.3247,-4.3254,-4.3265,-4.3294,-4.3299,-4.3332,-4.3334,-4.3379,-4.3375,-4.3374,-4.3374,-4.3402,-4.34,-4.349,-4.3502,-4.3423,-4.3423,-4.3424,0,-4.3097,-4.3124,-4.3149,-4.3167,-4.3179,-4.3207,-4.3225,-4.3229,-4.3247,-4.3272,-4.3292,-4.3321,-4.3344,-4.339,-4.34,-4.3426,-4.3424,-4.3453,-4.3427,-4.3428,-4.3426,-4.3425,-4.3428,-4.3459,-4.346,-4.346,-4.3461,0,-4.3163,-4.3166,-4.3193,-4.3221,-4.3243,-4.3264,-4.3285,-4.3299,-4.3306,-4.3327,-4.3357,-4.3375,-4.3411,-4.3439,-4.3465,-4.3476,-4.347,-4.3469,-4.3477,-4.3479,-4.3477,-4.348,-4.3389,-4.3467,-4.3467,-4.3466,-4.3466,-4.3465,-4.321,-4.3234,-4.3256,-4.3285,-4.3302,-4.3322,-4.3345,-4.3356,-4.3382,-4.3412,-4.3412,-4.3446,-4.3465,-4.3499,-4.3512,-4.3538,-4.3528,-4.3539,-4.3543,-4.3546,-4.3549,-4.3472,-4.3542,-4.3542,-4.3542,-4.3542,-4.3541,0,-4.3276,-4.329,-4.3318,-4.3348,-4.3372,-4.3365,-4.3388,-4.3408,-4.3438,-4.3457,-4.3481,-4.3516,-4.3544,-4.3557,-4.3585,-4.3603,-4.3601,-4.361,-4.3609,-4.3612,-4.3555,-4.3546,-4.3611,-4.3611,-4.3611,-4.3611,-4.3611,-4.3611,-4.3314,-4.3355,-4.3361,-4.341,-4.3423,-4.3457,-4.3471,-4.349,-4.3505,-4.3546,-4.357,-4.3578,-4.3595,-4.3624,-4.3649,-4.3652,-4.3663,-4.3674,-4.3676,-4.3623,-4.3616,-4.3609,-4.3601,-4.3676,-4.3676,-4.3731,-4.3731,-4.3732]}]]